This is the latest recevied weather packets stored in our database for station/object W0DXV. If no packets are shown the sender has not sent any weather packets the latest 10 day(s).
| Time | Temp. | Humidity | Pressure | Rain* | Wind** | Luminosity | Snow |
|---|---|---|---|---|---|---|---|
| 1777472158 | 16.11° C | 97% | 1008.9 hPa | 0 mm | - | 57 W/m² | - |
| 1777471858 | 16.11° C | 97% | 1008.7 hPa | 0 mm | - | 50 W/m² | - |
| 1777471555 | 16.11° C | 98% | 1008.9 hPa | 0 mm | - | 52 W/m² | - |
| 1777471251 | 16.11° C | 98% | 1009 hPa | 0 mm | - | 41 W/m² | - |
| 1777470948 | 16.11° C | 98% | 1008.9 hPa | 0 mm | - | 54 W/m² | - |
| 1777470645 | 16.11° C | 99% | 1009 hPa | 0 mm | - | 52 W/m² | - |
| 1777470341 | 16.11° C | 99% | 1009 hPa | 0 mm | - | 66 W/m² | - |
| 1777470038 | 16.11° C | 99% | 1009.2 hPa | 0 mm | - | 55 W/m² | - |
| 1777469733 | 16.11° C | 99% | 1009.5 hPa | 0 mm | - | 45 W/m² | - |
| 1777469430 | 15.56° C | 99% | 1009.4 hPa | 0 mm | - | 45 W/m² | - |
| 1777469125 | 15.56° C | 99% | 1009.6 hPa | 0 mm | - | 49 W/m² | - |
| 1777468819 | 15.56° C | 99% | 1009.7 hPa | 0 mm | - | 59 W/m² | - |
| 1777468516 | 15.56° C | 99% | 1009.7 hPa | 0 mm | - | 53 W/m² | - |
| 1777468213 | 15.56° C | 99% | 1009.9 hPa | 0 mm | - | 56 W/m² | - |
| 1777467909 | 15.56° C | 99% | 1010.3 hPa | 0 mm | - | 59 W/m² | - |
| 1777467605 | 15° C | 99% | 1010 hPa | 0 mm | - | 66 W/m² | - |
| 1777467300 | 15° C | 99% | 1010.2 hPa | 0 mm | - | 67 W/m² | - |
| 1777466996 | 15° C | 99% | 1009.8 hPa | 0 mm | - | 77 W/m² | - |
| 1777466694 | 15° C | 99% | 1009.8 hPa | 0 mm | - | 76 W/m² | - |
| 1777466391 | 15° C | 99% | 1009.8 hPa | 0 mm | - | 64 W/m² | - |
| 1777466087 | 14.44° C | 99% | 1009.8 hPa | 0 mm | - | 52 W/m² | - |
| 1777465784 | 14.44° C | 99% | 1009.9 hPa | 0 mm | - | 53 W/m² | - |
| 1777465479 | 14.44° C | 99% | 1009.7 hPa | 0 mm | - | 52 W/m² | - |
| 1777465178 | 14.44° C | 99% | 1009.5 hPa | 0 mm | - | 52 W/m² | - |
| 1777464874 | 14.44° C | 99% | 1009.4 hPa | 0 mm | - | 39 W/m² | - |
* Rain latest hour (hover to see other rain measurements)
** Current wind speed in m/s (hover to see current wind gust speed)